CAPE
2989 2817 2329 1756 1709 1670 1537 1497 1550 1687 1815 1864 1974 1873 1793 1841 1857 1985 2227 2373 2487 2580 2323 1472 939 702 656 761 872 901 1720 1252
3096 3106 2875 2956 2739 1473 1517 1587 1588 1584 1600 1618 1665 1767 1815 1781 1754 1730 2007 2205 2316 2350 2281 2054 1346 776 562 450 348 457 1472 1000
2773 2948 3078 3199 3085 2220 1691 1622 1615 1637 1824 1733 1593 2585 2610 2471 1875 1733 1681 1710 1872 2030 2062 2033 1874 1351 673 460 331 348 264 476
1527 1841 2244 2218 2068 2253 2412 2438 2642 2719 2717 2568 2674 2886 2924 2445 2030 1459 1587 1525 1419 1339 1475 1749 1820 1771 2078 852 1464 992 625 422
1403 1757 1857 1785 1639 1847 1816 891 597 468 880 1769 2505 2521 2559 2352 2413 2005 2272 1507 2293 1861 2034 2156 1792 1963 2031 2211 1989 1895 1495 1084
1334 1248 1133 588 446 287 68 1 0 2 2 29 418 1057 1336 910 1004 1097 1370 1536 2207 2315 2111 2324 2427 2467 2294 2174 1940 1962 1632 1593
702 573 310 37 3 5 2 0 0 0 0 0 0 62 196 361 282 349 154 210 363 874 1191 1784 2165 2305 2192 2272 2285 2102 1977 2317
102 125 180 26 0 0 0 0 0 0 0 0 0 0 0 0 0 0 0 0 0 0 22 165 800 1127 1658 1945 2047 2111 2013 1979
0 0 0 0 0 0 0 0 0 0 0 0 0 0 0 0 0 0 0 0 0 0 0 0 0 7 46 0 12 1041 2041 1737
0 0 0 0 0 0 0 0 0 0 0 0 0 0 0 0 0 0 0 0 0 0 0 0 0 0 0 0 0 0 0 358
0 0 0 0 0 0 0 0 0 0 0 0 0 0 0 0 0 0 0 0 0 0 0 0 0 0 0 0 0 0 0 0
0 0 0 0 0 0 0 0 0 0 0 0 0 0 0 0 0 0 0 0 0 0 0 0 0 0 0 0 0 0 0 0
0 0 0 0 0 0 0 0 0 0 0 0 0 0 0 0 0 0 0 0 0 0 0 0 0 0 0 0 0 0 0 0
0 0 0 0 0 0 0 0 0 0 0 0 0 0 0 0 0 0 0 1 2 3 3 2 0 0 1 0 0 0 0 17
0 0 0 0 0 0 0 0 0 0 0 0 0 0 0 0 0 0 3 9 11 16 9 8 7 1 10 5 0 0 1 0
0 0 0 0 0 0 0 0 0 0 0 0 0 0 1 2 2 3 6 10 7 15 13 23 10 20 10 16 34 22 8 0
0 0 0 0 0 0 0 0 0 0 0 0 0 0 0 0 3 3 5 4 4 9 11 8 17 18 16 15 14 16 14 15
0 0 0 0 0 0 0 0 0 0 0 0 0 0 0 1 1 3 2 2 2 3 4 4 8 10 10 10 9 6 1 8
0 0 0 0 0 0 0 0 0 0 0 0 0 0 0 1 4 6 4 4 2 3 5 6 7 7 10 4 4 3 7 15
0 0 0 0 0 0 0 0 0 0 0 0 0 0 1 6 14 13 12 10 8 9 8 9 11 11 10 13 12 12 15 16
CIN
-30 -51 -130 -232 -243 -260 -292 -309 -289 -246 -214 -195 -159 -158 -152 -126 -113 -83 -49 -28 -11 -1 -3 -68 -161 -200 -209 -168 -135 -125 -4 -1
-4 -5 -22 -23 -50 -241 -251 -240 -239 -246 -235 -218 -198 -169 -152 -153 -143 -136 -85 -52 -36 -23 -12 -16 -84 -187 -234 -261 -282 -222 -24 -17
-24 -3 0 0 0 -73 -139 -160 -174 -181 -149 -159 -194 -27 -28 -31 -80 -129 -126 -121 -88 -55 -43 -34 -30 -92 -211 -270 -323 -157 -124 -74
-194 -132 -76 -62 -47 -36 -22 -25 -2 -1 -2 -9 -4 -1 0 -6 -37 -95 -65 -84 -124 -116 -89 -50 -45 -11 -6 -188 -30 -66 -89 -92
-191 -138 -112 -108 -123 -79 -61 -214 -303 -326 -207 -48 0 0 0 -1 -1 -9 -1 -39 -1 -30 -23 -1 -5 -1 0 0 0 0 -4 -34
-197 -190 -215 -322 -342 -383 -475 -71 0 -192 -307 -415 -260 -91 -49 -109 -88 -75 -22 -18 -2 -1 0 -1 0 0 0 0 0 0 0 0
-299 -297 -367 -585 0 0 0 0 0 0 0 0 0 -357 -244 -178 -198 -161 -227 -202 -176 -69 -22 -2 0 0 -2 0 0 0 0 -1
-489 -466 -393 -523 0 0 0 0 0 0 0 0 0 0 0 0 0 0 0 0 0 0 -66 -166 -42 -8 -2 0 0 0 0 0
0 0 -22 0 0 0 0 0 0 0 0 0 0 0 0 0 0 0 0 0 0 0 0 0 0 -12 -185 0 -19 -18 0 0
0 0 0 0 0 0 0 0 0 0 0 0 0 0 0 0 0 0 0 0 0 0 0 0 0 0 0 0 0 0 0 -83
0 0 0 0 0 0 0 0 0 0 0 0 0 0 0 0 0 0 0 0 0 0 0 0 0 0 0 0 0 0 0 0
0 0 0 0 0 0 0 0 0 0 0 0 0 0 0 0 0 0 0 0 0 0 0 0 0 0 0 0 0 0 0 0
0 0 0 0 0 0 0 0 0 0 0 0 0 0 0 0 0 0 0 0 0 0 0 0 0 0 0 0 0 0 0 0
0 0 0 0 0 0 0 0 0 0 0 0 0 0 0 0 0 0 0 0 0 0 0 0 0 0 0 0 0 0 0 0
0 0 0 0 0 0 0 0 0 0 0 0 0 0 0 0 0 0 0 0 0 0 -1 0 0 0 0 0 0 0 0 0
0 0 0 0 0 0 0 0 0 0 0 0 0 0 0 0 0 0 0 0 0 0 -1 0 -1 0 0 0 0 0 0 0
0 0 0 0 0 0 0 0 0 0 0 0 0 0 0 0 0 0 0 0 0 0 0 0 0 0 0 0 0 0 0 0
0 0 0 0 0 0 0 0 0 0 0 0 0 0 0 0 0 0 0 0 0 0 0 0 0 0 0 0 0 0 0 0
0 0 0 0 0 0 0 0 0 0 0 0 0 0 0 0 0 0 0 0 0 0 0 0 0 0 0 0 0 0 0 0
0 0 0 0 0 0 0 0 0 0 0 0 0 0 0 0 0 0 0 0 0 0 0 0 0 0 0 0 0 0 0 0
Wind_Speed
8 10 10 8 8 10 10 11 11 10 10 10 10 9 9 9 9 8 8 7 6 6 7 8 8 8 8 8 8 8 11 6
5 6 8 9 9 3 5 6 6 8 9 8 7 7 7 9 9 10 9 8 8 7 7 7 9 9 9 8 8 8 13 13
4 5 5 4 5 5 3 4 4 4 7 6 7 8 10 12 8 9 8 8 7 7 8 8 8 10 12 10 8 9 11 9
5 4 3 2 1 4 4 5 6 5 5 6 5 5 6 5 2 4 6 6 6 7 8 8 8 10 11 13 9 10 9 9
5 5 5 5 5 3 4 6 6 6 10 7 3 3 1 3 3 4 6 7 6 8 8 10 12 10 9 8 9 10 8 8
8 6 7 8 5 5 6 5 5 5 6 7 5 4 5 5 4 5 4 4 5 5 5 7 8 9 10 11 11 11 8 8
9 8 8 9 9 7 7 7 6 6 8 10 8 5 3 2 3 2 3 3 3 3 3 6 7 10 11 13 14 13 13 7
9 11 10 11 10 11 8 6 7 6 6 8 9 6 5 5 3 3 3 4 5 5 6 6 6 6 8 11 13 12 11 12
10 10 11 11 12 10 8 7 7 7 7 8 7 7 6 7 5 5 5 5 6 5 6 6 7 6 7 4 4 9 12 11
10 9 11 11 10 8 7 7 6 6 6 7 10 9 8 6 5 5 7 6 6 6 6 6 7 7 8 7 6 5 8 8
12 11 11 10 10 8 8 8 6 6 5 6 8 8 8 7 5 6 8 7 6 6 7 7 7 8 9 8 8 9 10 9
10 9 9 9 7 6 5 6 5 5 5 6 7 6 7 7 5 5 7 7 7 6 9 8 8 8 9 9 9 10 10 10
10 9 7 5 4 4 4 5 3 5 5 8 7 7 8 7 5 6 7 7 8 8 8 9 7 6 8 9 8 10 12 11
10 10 8 7 5 5 3 4 2 4 5 5 6 7 7 6 6 6 7 7 8 8 7 6 7 6 7 8 8 4 6 4
9 8 8 7 9 6 4 3 1 4 5 4 5 6 5 6 6 5 5 5 6 7 4 6 6 7 7 5 5 4 7 6
8 7 6 6 7 7 8 4 5 6 6 6 7 5 5 5 5 6 5 5 6 6 5 6 7 7 7 6 6 8 6 6
9 8 7 5 4 6 6 5 3 3 4 6 8 7 6 6 5 6 7 5 6 7 6 6 6 6 8 6 6 6 8 9
10 11 7 7 5 5 7 5 3 4 5 6 6 6 6 6 6 6 6 7 7 7 7 7 7 7 7 7 7 7 7 8
12 10 8 7 6 5 5 4 2 6 7 6 8 7 6 7 5 6 6 6 7 7 8 9 8 8 9 7 7 7 7 7
14 11 10 9 7 5 5 5 4 5 6 7 7 7 8 8 8 8 9 9 8 9 8 8 8 8 11 10 8 8 7 9
Wind_Direction
153 156 150 155 148 151 159 158 157 157 158 160 163 169 175 182 185 190 197 204 207 203 191 181 185 199 199 204 209 228 272 271
159 172 178 173 165 166 160 146 142 151 158 160 165 170 183 185 190 195 196 200 204 208 213 204 192 198 214 216 217 224 241 260
145 178 194 191 162 131 133 115 107 140 159 161 178 209 189 176 189 156 189 200 210 218 221 219 206 200 202 217 218 233 238 239
78 63 84 157 239 131 199 169 192 209 214 189 223 219 222 266 150 198 218 214 213 234 240 230 222 245 196 190 223 237 238 250
108 88 84 101 96 85 26 28 34 24 21 345 282 269 328 225 220 197 221 198 227 202 218 231 238 244 241 248 242 223 233 243
125 110 102 82 68 70 72 66 53 48 37 31 33 40 25 24 28 25 1 344 324 269 231 247 273 281 269 272 254 262 252 242
102 104 97 95 79 70 68 62 58 49 43 39 19 23 36 29 23 2 344 336 335 284 291 298 267 243 241 246 244 242 253 264
89 90 93 99 91 89 80 66 58 50 52 42 38 33 17 3 0 4 351 344 340 318 322 295 273 293 303 276 258 258 253 246
80 80 88 93 100 95 91 82 76 64 59 38 41 35 8 343 355 343 345 329 307 298 293 281 273 261 267 301 335 300 266 255
90 89 86 84 85 84 86 84 82 69 55 45 24 21 12 345 338 341 349 318 315 303 296 293 283 276 276 267 253 254 265 266
102 97 93 92 84 84 78 69 63 70 48 33 15 10 359 338 338 339 329 314 304 303 294 286 287 277 275 271 269 264 260 257
116 106 103 102 102 102 95 75 63 35 38 39 14 7 355 338 328 329 320 310 302 312 305 299 293 287 285 281 274 268 263 258
140 130 130 129 118 116 92 77 47 34 20 25 13 6 1 343 339 327 330 318 320 305 300 293 290 284 291 272 272 261 253 258
159 148 135 125 116 100 65 57 46 23 6 15 6 4 4 346 345 339 335 318 307 304 303 319 292 284 293 302 274 254 223 240
176 156 134 116 121 117 97 85 39 2 350 351 1 356 7 1 4 349 331 322 319 314 316 292 305 297 279 289 288 268 356 269
172 152 136 118 107 97 89 50 10 10 345 344 328 334 324 352 341 333 332 321 314 321 315 297 293 285 286 251 268 297 276 288
176 157 145 139 106 118 122 81 353 319 286 324 325 318 317 317 314 324 314 316 309 304 299 299 292 288 291 298 287 277 264 263
179 178 185 174 177 156 123 134 253 322 316 309 308 304 298 280 297 296 300 303 299 303 296 283 279 274 266 259 263 281 290 294
192 199 186 185 181 139 128 155 204 276 290 297 298 286 276 273 277 277 275 275 282 292 289 282 274 275 274 276 273 266 267 284
201 198 194 181 173 186 203 210 238 262 283 298 286 282 276 273 260 260 259 268 277 277 279 281 279 268 267 264 268 264 252 240